This demonstration page uses our WeatherBlox Daily Observations layout. Learn more.

36.17497, -115.13722

Hourly Observations for January 30, 2018

Temp ( °F °C ) Dew Point ( °F °C ) Humidity (%) Winds ( mph kmh ) Pressure ( in mb ) Visibility ( mi km ) Precip ( " mm )
12:53 am 00:53 Clear 51 10.6 26 -3.3 38 38 Calm 30.24 1024 10 16.0934 0 0
1:53 am 01:53 Clear 49 9.4 27 -2.8 43 43 WNW 3 6 30.23 1024 10 16.0934 0 0
2:53 am 02:53 Clear 47 8.3 27 -2.8 46 46 N 7 11 30.22 1023 10 16.0934 0 0
3:53 am 03:53 Clear 49 9.4 26 -3.3 41 41 NW 6 9 30.2 1023 10 16.0934 0 0
4:53 am 04:53 Clear 48 8.9 26 -3.3 42 42 NW 3 6 30.22 1023 10 16.0934 0 0
5:53 am 05:53 Clear 47 8.3 26 -3.3 44 44 Calm 30.24 1024 10 16.0934 0 0
6:53 am 06:53 Sunny 46 7.8 27 -2.8 47 47 NW 5 7 30.26 1025 10 16.0934 0 0
7:53 am 07:53 Sunny 49 9.4 27 -2.8 43 43 NW 7 11 30.27 1025 10 16.0934 0 0
8:53 am 08:53 Sunny 59 15 24 -4.4 26 26 Calm 30.26 1025 10 16.0934 0 0
9:53 am 09:53 Sunny 59 15 25 -3.9 27 27 SSE 3 6 30.26 1025 10 16.0934 0 0
10:53 am 10:53 Sunny 63 17.2 24 -4.4 23 23 SSE 6 9 30.23 1024 10 16.0934 0 0
11:53 am 11:53 Sunny 66 18.9 24 -4.4 20 20 E 7 11 30.18 1022 10 16.0934 0 0
12:53 pm 12:53 Sunny 67 19.4 22 -5.6 18 18 E 5 7 30.14 1021 10 16.0934 0 0
1:53 pm 13:53 Sunny 68 20 22 -5.6 17 17 SE 5 7 30.12 1020 10 16.0934 0 0
2:53 pm 14:53 Sunny 69 20.6 22 -5.6 17 17 Calm 30.11 1020 10 16.0934 0 0
3:53 pm 15:53 Sunny 68 20 22 -5.6 17 17 S 3 6 30.09 1019 10 16.0934 0 0
4:53 pm 16:53 Sunny 67 19.4 23 -5 19 19 S 3 6 30.09 1019 10 16.0934 0 0
5:53 pm 17:53 Clear 62 16.7 26 -3.3 25 25 Calm 30.08 1019 10 16.0934 0 0
6:53 pm 18:53 Clear 59 15 27 -2.8 29 29 NW 3 6 30.09 1019 10 16.0934 0 0
7:53 pm 19:53 Clear 57 13.9 29 -1.7 34 34 NW 7 11 30.09 1019 10 16.0934 0 0
8:53 pm 20:53 Clear 54 12.2 29 -1.7 38 38 NW 6 9 30.08 1019 10 16.0934 0 0
9:53 pm 21:53 Clear 53 11.7 30 -1.1 41 41 NW 6 9 30.08 1019 10 16.0934 0 0
10:53 pm 22:53 Clear 52 11.1 29 -1.7 41 41 NW 5 7 30.08 1019 10 16.0934 0 0

Powered by AerisWeather